Home   Weather   Township of Toms River   Past weeks
Flag for USA

Past Weather in Township of Toms River, New Jersey, USA — Yesterday and Last 2 Weeks

Now
55 °F

Sunny.


Feels Like: 51 °F
Forecast: 54 / 40 °F
Wind: 16 mph from Northwest

Location: Dover Forge

Current Time: Apr 2, 2020 at 2:28:12 pm

Latest Report: Apr 2, 2020 at 1:56 pm


Visibility: 10 mi

Pressure: 29.68 "Hg

Humidity: 37%

Dew Point: 29 °F

Location of Township of Toms RiverLocation

Past Weather in Township of Toms River — Graph

°F

Township of Toms River Temperature Yesterday

Maximum temperature yesterday: 53 °F (at 3:56 pm)
Minimum temperature yesterday: 38 °F (at 7:56 am)
Average temperature yesterday: 44 °F

High & Low Weather Summary for the Past Weeks

 TemperatureHumidityPressure
High81 °F (Mar 20, 3:56 pm)100% (Mar 19, 2:43 am)30.69 "Hg (Mar 19, 2:43 am)
Low28 °F (Mar 22, 1:56 am)31% (Mar 21, 3:56 pm)29.70 "Hg (Apr 2, 12:56 pm)
Average46 °F81%30.08 "Hg
* Reported Mar 18 2:56 pm — Apr 2 12:56 pm, Township of Toms River. Weather by CustomWeather, © 2020

Note: Actual official high and low records may vary slightly from our data, if they occured in-between our weather recording intervals... More about our weather records

Township of Toms River Weather History for the Previous 24 Hours

Scroll right to see more
 ConditionsComfort  
Time TempWeatherWind HumidityBarometerVisibility
12:56 pm
Thu, Apr 2
53 °FSunny.18 mph38%29.70 "Hg10 mi
11:56 am51 °FScattered clouds.17 mph41%29.73 "Hg10 mi
10:56 am48 °FScattered clouds.20 mph48%29.74 "Hg10 mi
9:56 am46 °FSunny.18 mph50%29.77 "Hg10 mi
8:56 am42 °FSunny.17 mph55%29.79 "Hg10 mi
7:56 am39 °FSunny.15 mph60%29.80 "Hg10 mi
6:56 am37 °FSunny.10 mph62%29.80 "Hg10 mi
5:56 am37 °FClear.12 mph62%29.79 "Hg10 mi
4:56 am36 °FClear.10 mph67%29.79 "Hg10 mi
3:56 am38 °FClear.9 mph63%29.78 "Hg10 mi
2:56 am38 °FClear.8 mph63%29.79 "Hg10 mi
1:56 am41 °FClear.9 mph55%29.80 "Hg10 mi
12:56 am42 °FClear.9 mph55%29.79 "Hg10 mi
11:56 pm
Wed, Apr 1
44 °FClear.10 mph51%29.79 "Hg10 mi
10:56 pm44 °FClear.8 mph58%29.78 "Hg10 mi
9:56 pm39 °FClear.5 mph73%29.78 "Hg10 mi
8:56 pm43 °FPassing clouds.5 mph68%29.78 "Hg10 mi
7:56 pm47 °FOvercast.6 mph61%29.76 "Hg10 mi
6:56 pm50 °FOvercast.3 mph52%29.75 "Hg10 mi
5:56 pm51 °FOvercast.8 mph46%29.75 "Hg10 mi
4:56 pm52 °FPartly sunny.8 mph41%29.75 "Hg10 mi
3:56 pm53 °FPartly sunny.13 mph39%29.74 "Hg10 mi
2:56 pm52 °FScattered clouds.12 mph40%29.76 "Hg10 mi
Weather by CustomWeather, © 2020

See weather overview

Advertising